Regional Weather Roundup
Issued by NWS Charleston, WV

Home | Current Version | Previous Version | Text Only | Print | Product List | Glossary Off
Versions: 1 2 3 4 5 6 7 8 9 10 11 12 13 14 15 16 17 18 19 20 21 22 23 24 25 26 27 28 29 30 31 32 33 34 35 36 37 38 39 40 41 42 43 44 45 46 47 48 49 50

000
ASUS41 KRLX 251910
RWRRLX
West Virginia Regional Weather Roundup
National Weather Service Charleston WV
300 PM EDT MON MAY 25 2015

Note: "fair" indicates few or no clouds below 12,000 feet with no
significant weather and/or obstructions to visibility.

WVZ003-252000-
Northern Panhandle of West Virginia

CITY           SKY/WX    TMP DP  RH WIND       PRES   REMARKS
WHEELING       PTSUNNY   79  57  47 SW15G21   30.15F
$$

WVZ009-252000-
Northwest West Virginia

CITY           SKY/WX    TMP DP  RH WIND       PRES   REMARKS
PARKERSBURG    PTSUNNY   81  59  47 W8        30.19F
$$

WVZ006-252000-
Western West Virginia

CITY           SKY/WX    TMP DP  RH WIND       PRES   REMARKS
HUNTINGTON     PTSUNNY   84  61  45 SW8       30.17F
$$

WVZ015-252000-
West Central West Virginia

CITY           SKY/WX    TMP DP  RH WIND       PRES   REMARKS
CHARLESTON     MOSUNNY   84  58  40 W5        30.18F
$$

WVZ022-031-252000-
North Central West Virginia

CITY           SKY/WX    TMP DP  RH WIND       PRES   REMARKS
CLARKSBURG     SUNNY     83  57  41 SW9       30.18F
MORGANTOWN     SUNNY     84  53  34 S10G17    30.19F
$$

WVZ025-035-042-045-252000-
Southern West Virginia

CITY           SKY/WX    TMP DP  RH WIND       PRES   REMARKS
BECKLEY        MOSUNNY   81  49  32 NW6       30.27F
LOGAN            N/A     84  57  39 E5        30.19F
BLUEFIELD      SUNNY     83  51  33 VRB6      30.30F
LEWISBURG      SUNNY     80  51  35 SW10      30.28F
$$

WVZ047-252000-
Northern Mountains of West Virginia

CITY           SKY/WX    TMP DP  RH WIND       PRES   REMARKS
ELKINS         SUNNY     83  51  33 NW9       30.22F
$$

WVZ052-252000-
Eastern Panhandle of West Virginia

CITY           SKY/WX    TMP DP  RH WIND       PRES   REMARKS
MARTINSBURG    SUNNY     82  58  43 S10       30.19F
PETERSBURG     SUNNY     85  50  29 SW6       30.17F
$$


USA.gov is the U.S. government's official web portal to all federal, state and local government web resources and services.